Time,TemperatureF,DewpointF,PressureIn,WindDirection,WindDirectionDegrees,WindSpeedMPH,WindSpeedGustMPH,Humidity,HourlyPrecipIn,Conditions,Clouds,dailyrainin,SoftwareType,DateUTC
2013-08-03 00:33:00,70.0,-99.9,29.91,SW,232,-999.0,-999.0,-999,0.00,,,-99.99,,2013-08-03 04:33:00,
2013-08-03 00:43:00,70.0,-99.9,29.91,SW,232,-999.0,-999.0,-999,0.00,,,-99.99,,2013-08-03 04:43:00,
2013-08-03 01:32:00,69.0,-99.9,29.90,SSW,198,-999.0,-999.0,-999,0.00,,,-99.99,,2013-08-03 05:32:00,
2013-08-03 01:43:00,69.0,-99.9,29.90,SSW,198,-999.0,-999.0,-999,0.00,,,-99.99,,2013-08-03 05:43:00,
2013-08-03 01:52:00,69.0,-99.9,29.90,SSW,198,-999.0,-999.0,-999,0.00,,,-99.99,,2013-08-03 05:52:00,
2013-08-03 02:33:00,69.0,-99.9,29.89,SSW,205,-999.0,-999.0,-999,0.00,,,-99.99,,2013-08-03 06:33:00,
2013-08-03 02:42:00,69.0,-99.9,29.89,SSW,205,-999.0,-999.0,-999,0.00,,,-99.99,,2013-08-03 06:42:00,
2013-08-03 02:52:00,69.0,-99.9,29.89,SSW,205,-999.0,-999.0,-999,0.00,,,-99.99,,2013-08-03 06:52:00,
2013-08-03 02:53:00,67.0,-99.9,29.88,WNW,283,-999.0,7.0,-999,0.00,,,-99.99,,2013-08-03 06:53:00,
2013-08-03 03:32:00,67.0,-99.9,29.88,WNW,283,-999.0,7.0,-999,0.00,,,-99.99,,2013-08-03 07:32:00,
2013-08-03 03:43:00,67.0,-99.9,29.88,WNW,283,-999.0,7.0,-999,0.00,,,-99.99,,2013-08-03 07:43:00,
2013-08-03 04:32:00,69.0,-99.9,29.87,South,173,-999.0,-999.0,-999,0.00,,,-99.99,,2013-08-03 08:32:00,
2013-08-03 04:43:00,69.0,-99.9,29.87,South,173,-999.0,-999.0,-999,0.00,,,-99.99,,2013-08-03 08:43:00,
2013-08-03 04:52:00,69.0,-99.9,29.87,South,173,-999.0,-999.0,-999,0.00,,,-99.99,,2013-08-03 08:52:00,
2013-08-03 04:53:00,69.0,-99.9,29.88,WSW,238,5.0,6.0,-999,0.00,,,-99.99,,2013-08-03 08:53:00,
2013-08-03 05:32:00,69.0,-99.9,29.88,WSW,238,5.0,6.0,-999,0.00,,,-99.99,,2013-08-03 09:32:00,
2013-08-03 05:43:00,69.0,-99.9,29.88,WSW,238,5.0,6.0,-999,0.00,,,-99.99,,2013-08-03 09:43:00,
2013-08-03 05:53:00,68.0,-99.9,29.89,SSW,205,-999.0,6.0,-999,0.00,,,-99.99,,2013-08-03 09:53:00,
2013-08-03 06:33:00,68.0,-99.9,29.89,SSW,205,-999.0,6.0,-999,0.00,,,-99.99,,2013-08-03 10:33:00,
2013-08-03 06:43:00,68.0,-99.9,29.89,SSW,205,-999.0,6.0,-999,0.00,,,-99.99,,2013-08-03 10:43:00,
2013-08-03 06:53:00,67.0,-99.9,29.90,ESE,120,-999.0,-999.0,-999,0.01,,,-99.99,,2013-08-03 10:53:00,
2013-08-03 07:32:00,67.0,-99.9,29.90,ESE,120,-999.0,-999.0,-999,0.01,,,-99.99,,2013-08-03 11:32:00,
2013-08-03 07:43:00,67.0,-99.9,29.90,ESE,120,-999.0,-999.0,-999,0.01,,,-99.99,,2013-08-03 11:43:00,
2013-08-03 07:53:00,67.0,-99.9,29.91,ESE,120,-999.0,-999.0,-999,0.01,,,-99.99,,2013-08-03 11:53:00,
2013-08-03 08:33:00,67.0,-99.9,29.91,ESE,120,-999.0,-999.0,-999,0.01,,,-99.99,,2013-08-03 12:33:00,
2013-08-03 08:43:00,67.0,-99.9,29.91,ESE,120,-999.0,-999.0,-999,0.01,,,-99.99,,2013-08-03 12:43:00,
2013-08-03 09:33:00,67.0,-99.9,29.90,ESE,120,-999.0,-999.0,-999,0.01,,,-99.99,,2013-08-03 13:33:00,
2013-08-03 09:43:00,67.0,-99.9,29.90,ESE,120,-999.0,-999.0,-999,0.01,,,-99.99,,2013-08-03 13:43:00,
2013-08-03 09:52:00,67.0,-99.9,29.90,ESE,120,-999.0,-999.0,-999,0.01,,,-99.99,,2013-08-03 13:52:00,
2013-08-03 10:33:00,67.0,-99.9,29.90,WSW,245,-999.0,-999.0,-999,0.01,,,-99.99,,2013-08-03 14:33:00,
2013-08-03 10:42:00,67.0,-99.9,29.90,WSW,245,-999.0,-999.0,-999,0.01,,,-99.99,,2013-08-03 14:42:00,
2013-08-03 10:52:00,67.0,-99.9,29.90,WSW,245,-999.0,-999.0,-999,0.01,,,-99.99,,2013-08-03 14:52:00,
2013-08-03 10:53:00,68.0,-99.9,29.91,SE,140,-999.0,5.0,-999,0.02,,,-99.99,,2013-08-03 14:53:00,
2013-08-03 11:32:00,68.0,-99.9,29.91,SE,140,-999.0,5.0,-999,0.02,,,-99.99,,2013-08-03 15:32:00,
2013-08-03 11:43:00,68.0,-99.9,29.91,SE,140,-999.0,5.0,-999,0.02,,,-99.99,,2013-08-03 15:43:00,
2013-08-03 11:53:00,69.0,-99.9,29.90,South,183,5.0,5.0,-999,0.00,,,-99.99,,2013-08-03 15:53:00,
2013-08-03 12:33:00,69.0,-99.9,29.90,South,183,5.0,5.0,-999,0.00,,,-99.99,,2013-08-03 16:33:00,
2013-08-03 12:43:00,69.0,-99.9,29.90,South,183,5.0,5.0,-999,0.00,,,-99.99,,2013-08-03 16:43:00,
2013-08-03 13:33:00,70.0,-99.9,29.89,SSW,210,-999.0,-999.0,-999,0.02,,,-99.99,,2013-08-03 17:33:00,
2013-08-03 13:43:00,70.0,-99.9,29.89,SSW,210,-999.0,-999.0,-999,0.02,,,-99.99,,2013-08-03 17:43:00,
2013-08-03 13:52:00,70.0,-99.9,29.89,SSW,210,-999.0,-999.0,-999,0.02,,,-99.99,,2013-08-03 17:52:00,
2013-08-03 13:53:00,73.0,-99.9,29.88,South,189,3.0,6.0,-999,0.00,,,-99.99,,2013-08-03 17:53:00,
2013-08-03 14:32:00,73.0,-99.9,29.88,South,189,3.0,6.0,-999,0.00,,,-99.99,,2013-08-03 18:32:00,
2013-08-03 14:43:00,73.0,-99.9,29.88,South,189,3.0,6.0,-999,0.00,,,-99.99,,2013-08-03 18:43:00,
2013-08-03 14:53:00,77.0,-99.9,29.88,South,189,3.0,10.0,-999,0.00,,,-99.99,,2013-08-03 18:53:00,
2013-08-03 15:32:00,77.0,-99.9,29.88,South,189,3.0,10.0,-999,0.00,,,-99.99,,2013-08-03 19:32:00,
2013-08-03 15:43:00,77.0,-99.9,29.88,South,189,3.0,10.0,-999,0.00,,,-99.99,,2013-08-03 19:43:00,
2013-08-03 16:32:00,78.0,-99.9,29.85,South,170,3.0,7.0,-999,0.00,,,-99.99,,2013-08-03 20:32:00,
2013-08-03 16:42:00,78.0,-99.9,29.85,South,170,3.0,7.0,-999,0.00,,,-99.99,,2013-08-03 20:42:00,
2013-08-03 16:52:00,78.0,-99.9,29.85,South,170,3.0,7.0,-999,0.00,,,-99.99,,2013-08-03 20:52:00,
2013-08-03 17:32:00,79.0,-99.9,29.83,SE,132,5.0,9.0,-999,0.00,,,-99.99,,2013-08-03 21:32:00,
2013-08-03 17:42:00,79.0,-99.9,29.83,SE,132,5.0,9.0,-999,0.00,,,-99.99,,2013-08-03 21:42:00,
2013-08-03 17:52:00,79.0,-99.9,29.83,SE,132,5.0,9.0,-999,0.00,,,-99.99,,2013-08-03 21:52:00,
2013-08-03 18:33:00,77.0,-99.9,29.85,SW,216,-999.0,10.0,-999,0.00,,,-99.99,,2013-08-03 22:33:00,
2013-08-03 18:43:00,77.0,-99.9,29.85,SW,216,-999.0,10.0,-999,0.00,,,-99.99,,2013-08-03 22:43:00,
2013-08-03 18:52:00,77.0,-99.9,29.85,SW,216,-999.0,10.0,-999,0.00,,,-99.99,,2013-08-03 22:52:00,
2013-08-03 19:32:00,74.0,-99.9,29.85,South,186,5.0,7.0,-999,0.01,,,-99.99,,2013-08-03 23:32:00,
2013-08-03 19:43:00,74.0,-99.9,29.85,South,186,5.0,7.0,-999,0.01,,,-99.99,,2013-08-03 23:43:00,
2013-08-03 19:52:00,74.0,-99.9,29.85,South,186,5.0,7.0,-999,0.01,,,-99.99,,2013-08-03 23:52:00,
2013-08-03 19:53:00,74.0,-99.9,29.85,South,179,-999.0,6.0,-999,0.00,,,-99.99,,2013-08-03 23:53:00,
2013-08-03 20:32:00,74.0,-99.9,29.85,South,179,-999.0,6.0,-999,0.00,,,-99.99,,2013-08-04 00:32:00,
2013-08-03 20:42:00,74.0,-99.9,29.85,South,179,-999.0,6.0,-999,0.00,,,-99.99,,2013-08-04 00:42:00,
2013-08-03 20:53:00,73.0,-99.9,29.86,WSW,242,6.0,9.0,-999,0.00,,,-99.99,,2013-08-04 00:53:00,
2013-08-03 21:32:00,73.0,-99.9,29.86,WSW,242,6.0,9.0,-999,0.00,,,-99.99,,2013-08-04 01:32:00,
2013-08-03 21:42:00,73.0,-99.9,29.86,WSW,242,6.0,9.0,-999,0.00,,,-99.99,,2013-08-04 01:42:00,
2013-08-03 22:32:00,72.0,-99.9,29.87,WNW,283,-999.0,5.0,-999,0.00,,,-99.99,,2013-08-04 02:32:00,
2013-08-03 22:42:00,72.0,-99.9,29.87,WNW,283,-999.0,5.0,-999,0.00,,,-99.99,,2013-08-04 02:42:00,
2013-08-03 22:52:00,72.0,-99.9,29.87,WNW,283,-999.0,5.0,-999,0.00,,,-99.99,,2013-08-04 02:52:00,
2013-08-03 23:32:00,70.0,-99.9,29.87,WNW,283,-999.0,4.0,-999,0.00,,,-99.99,,2013-08-04 03:32:00,
2013-08-03 23:42:00,70.0,-99.9,29.87,WNW,283,-999.0,4.0,-999,0.00,,,-99.99,,2013-08-04 03:42:00,
2013-08-03 23:52:00,70.0,-99.9,29.87,WNW,283,-999.0,4.0,-999,0.00,,,-99.99,,2013-08-04 03:52:00,